EW9087 Weather Reports


Display with metric or nautical units.
time (UTC)temp
F
wind
direction
speed
MPH
gust
MPH
rain 1hr
in
rain 24hr
in
rain mn
in
humidity
%
barometer
mb
20260504081517 50 190 7.0 12.0 0.00 0.00 0.00 78 977.8
20260504044558 48 184 5.0 8.0 0.00 0.00 0.00 83 979.8
20260504043052 48 180 5.0 9.0 0.00 0.00 0.00 83 979.9
20260504041545 47 175 5.0 7.0 0.00 0.00 0.00 85 980.0
20260504040054 47 169 1.0 3.0 0.00 0.00 0.00 85 980.1
20260504034555 47 169 2.0 6.0 0.00 0.00 0.00 84 980.3
20260504033054 48 174 2.0 7.0 0.00 0.00 0.00 83 980.4
20260504031539 48 165 3.0 6.0 0.00 0.00 0.00 82 980.4
20260504030044 48 168 4.0 7.0 0.00 0.00 0.00 82 980.7
20260504024536 48 155 4.0 8.0 0.00 0.00 0.00 82 980.8
20260504023040 48 133 5.0 8.0 0.00 0.00 0.00 82 980.8
20260504021535 48 150 4.0 8.0 0.00 0.00 0.00 82 980.9
20260504020037 48 138 5.0 9.0 0.00 0.00 0.00 83 980.9
20260504014544 49 158 5.0 10.0 0.00 0.00 0.00 83 980.7
20260504013038 49 144 5.0 9.0 0.00 0.00 0.00 82 980.8
20260504011532 49 151 6.0 12.0 0.00 0.00 0.00 82 980.8
20260504010031 50 150 7.0 11.0 0.00 0.00 0.00 81 980.9
20260504004535 50 153 7.0 14.0 0.00 0.00 0.00 80 980.9
20260504003034 51 153 7.0 14.0 0.00 0.00 0.00 80 981.0
20260504001529 51 154 6.0 12.0 0.00 0.00 0.00 80 981.0
20260504000028 51 160 7.0 14.0 0.00 0.00 0.00 79 981.2
20260503234537 51 178 7.0 13.0 0.00 0.00 0.00 80 981.4
20260503233025 51 146 8.0 14.0 0.00 0.00 0.00 80 981.5
20260503231524 51 169 8.0 13.0 0.00 0.00 0.00 81 981.6
20260503230021 51 146 9.0 13.0 0.00 0.00 0.00 81 981.9
20260503224520 51 157 6.0 11.0 0.00 0.00 0.00 81 982.1
20260503223018 50 155 6.0 15.0 0.00 0.00 0.00 83 982.2
20260503221517 49 158 7.0 12.0 0.00 0.00 0.00 84 982.3
20260503220017 49 161 8.0 14.0 0.00 0.00 0.00 84 982.3
20260503214515 49 161 8.0 14.0 0.00 0.00 0.00 83 982.5
20260503213015 49 177 8.0 13.0 0.00 0.00 0.00 83 982.7
20260503211513 49 190 7.0 14.0 0.00 0.00 0.00 83 982.9
20260503210010 49 168 6.0 13.0 0.00 0.00 0.00 82 983.4
20260503204509 49 184 7.0 14.0 0.00 0.00 0.00 81 983.8
20260503203009 50 245 13.0 24.0 0.00 0.00 0.00 77 984.4
20260503201506 51 237 19.0 29.0 0.00 0.00 0.00 74 984.5
20260503200006 53 240 24.0 35.0 0.00 0.00 0.00 69 984.7
20260503194505 55 219 18.0 31.0 0.00 0.00 0.00 64 984.6
20260503193008 57 231 22.0 28.0 0.00 0.00 0.00 59 984.3
20260503191504 59 256 17.0 26.0 0.00 0.00 0.00 54 984.3
20260503190003 59 230 18.0 28.0 0.00 0.00 0.00 52 984.3
20260503184507 59 217 14.0 25.0 0.00 0.00 0.00 52 984.3
20260503183002 60 242 15.0 27.0 0.00 0.00 0.00 50 984.3
20260503181502 60 220 16.0 28.0 0.00 0.00 0.00 50 984.5
20260503180059 60 207 17.0 25.0 0.00 0.00 0.00 50 984.8
20260503174558 60 227 19.0 26.0 0.00 0.00 0.00 51 985.0
20260503173117 60 215 12.0 27.0 0.00 0.00 0.00 52 985.1
20260503171552 60 221 13.0 25.0 0.00 0.00 0.00 53 985.3